Location: Barlest
(43.1500°N, 0.1000°W)
Time: 04:38:20
(UTC+00:00)

Daily predictions for brighter satellites

Satellite Brightness Start Highest point End
(mag) Time Altitude Azimuth Time Altitude Azimuth Time Altitude Azimuth
Cosmos 2369 Rocket 4.5 03:51:56 16° NNE 03:51:56 16° NNE 03:52:59 10° NNE
Cosmos 2344 4.5 04:05:25 34° N 04:05:25 34° N 04:10:25 10° NNE
SJ 16-02 3.8 04:13:43 10° SE 04:16:54 20° E 04:20:05 10° NE
USA 215 4.3 04:14:01 10° ENE 04:19:38 32° NNE 04:20:33 31° N
Cosmos 1634 Rocket 4.2 04:34:54 55° SSW 04:34:54 55° SSW 04:39:39 10° S
ATLAS 5 CENTAUR R/B 2.7 04:41:25 36° ENE 04:41:25 36° ENE 04:44:15 10° NE
Cosmos 1354 Rocket 3.8 04:53:50 79° NW 04:53:50 79° NW 04:59:05 10° NNE
CENTAUR R/B 4.0 04:59:09 23° NNW 04:59:09 23° NNW 05:04:20 10° NNE
DELTA 2 R/B (1) 3.7 04:59:49 54° SW 05:00:37 61° S 05:06:05 10° ESE
SL-19 R/B 4.1 05:00:56 10° SSE 05:06:30 82° WSW 05:09:38 28° NNW
CZ-3 R/B 4.4 04:56:45 10° SW 05:08:15 21° S 05:13:44 10° SE
Cosmos 2180 Rocket 4.3 05:03:07 10° N 05:09:18 86° W 05:15:25 10° S
Cosmos 1328 Rocket 4.3 05:16:03 36° SSW 05:16:03 36° SSW 05:18:52 10° S
MOS 1-B Rocket 3.9 05:13:49 10° S 05:19:50 59° WSW 05:23:08 25° NNW
Meteor 1-27 Rocket 3.8 05:17:54 10° N 05:23:38 80° E 05:29:26 10° SSE
Meteor 2-6 Rocket 4.4 05:24:13 41° WNW 05:24:57 43° W 05:30:02 10° SSW
BREEZE-M DEB (TANK) 4.0 05:26:09 33° W 05:28:13 47° SSW 05:44:34 10° SE
ADEOS 4.0 05:23:12 10° NNE 05:28:24 62° ESE 05:33:34 10° S
Cosmos 2297 Rocket 3.8 05:24:40 10° N 05:29:39 30° NE 05:34:36 10° ESE
ATLAS 3B R/B 2.5 05:24:17 10° SW 05:30:48 87° WNW 05:37:41 10° NE
Cosmos 1607 4.5 05:26:35 17° NNW 05:31:26 56° NE 05:37:27 10° SE
Cosmos 2369 Rocket 3.8 05:33:46 17° NNW 05:33:46 17° NNW 05:36:03 10° N
Meteor 2-15 Rocket 4.3 05:26:48 10° N 05:32:54 82° W 05:38:57 10° S
Landsat 5 3.5 05:28:37 10° SSE 05:33:06 82° WSW 05:36:39 16° NNW
Cosmos 1340 Rocket 2.7 05:30:09 10° S 05:34:07 88° E 05:38:09 10° N
Cosmos 773 Rocket 4.1 05:32:06 31° NW 05:34:18 53° WSW 05:39:18 10° S
COSMO-SKYMED 1 2.6 05:30:50 10° S 05:35:05 57° W 05:37:10 28° NNW
Cosmos 1777 Rocket 3.9 05:29:56 10° SSW 05:35:05 63° WNW 05:40:19 10° NNE
SL-27 R/B 3.2 05:36:24 36° SW 05:36:24 36° SW 05:39:04 10° S
CZ-2C R/B 2.7 05:31:38 10° S 05:37:00 59° W 05:41:56 12° NNW
CZ-4B R/B 4.4 05:35:53 10° E 05:37:22 13° ENE 05:38:50 10° NE
Cosmos 1408 Rocket 3.7 05:36:35 10° SSW 05:40:43 45° WNW 05:44:52 10° N
Cosmos 158 Rocket 4.1 05:36:53 12° NNW 05:41:38 80° ENE 05:46:56 10° SSE
SJ-12 4.3 05:38:30 10° N 05:42:23 39° WNW 05:46:13 10° SW
CZ-4B R/B 3.7 05:41:15 10° NNE 05:44:43 47° E 05:48:15 10° S
FAST Rocket 4.0 05:43:46 10° S 05:46:24 88° ESE 05:49:53 10° N
Lacrosse 5 3.5 05:43:12 10° SSW 05:47:49 36° SE 05:52:28 10° ENE
Meteor 1-31 Rocket 3.1 05:47:18 10° N 05:51:01 41° WNW 05:54:42 10° SW
USA 32 4.1 05:46:43 10° N 05:52:00 81° E 05:57:15 10° S
Envisat 3.4 05:48:05 10° N 05:52:47 39° WNW 05:57:28 10° SW
Cosmos 1743 Rocket 3.4 05:48:37 10° SSW 05:52:57 64° W 05:57:17 10° N
SJ 16-02 1.8 05:51:06 10° SW 05:55:11 38° WNW 05:59:17 10° N
Cosmos 1656 4.5 05:52:54 10° S 05:58:08 53° ESE 06:03:26 10° NNE
CZ-2C R/B 3.1 05:53:42 10° NNE 05:58:42 84° ESE 06:03:57 10° SSW
USA 215 3.5 05:55:31 10° ESE 06:01:59 69° NE 06:07:53 13° NW
Cosmos 1515 Rocket 4.3 06:00:09 20° NW 06:02:15 30° W 06:06:01 10° SSW
SL-4 R/B 1.6 05:59:55 14° WSW 06:02:48 87° NNW 06:06:32 10° ENE
Nadezhda 4 Rocket 4.1 05:57:29 10° SSW 06:03:26 49° WNW 06:09:31 10° N
Lacrosse 4 Rocket 3.7 06:01:10 10° N 06:04:39 22° NE 06:08:08 10° E
Cosmos 2227 Rocket 3.4 06:00:51 10° NNW 06:06:10 40° ENE 06:11:28 10° SE
IRAS Rocket 4.2 06:01:54 10° SSE 06:07:24 78° WSW 06:12:54 10° NNW
Cosmos 1939 Rocket 3.1 06:05:11 10° NNE 06:09:05 69° E 06:12:54 10° S
Cosmos 2228 Rocket 3.1 06:07:23 10° NNW 06:11:53 69° W 06:16:24 10° S
Okean 1 3.3 06:09:11 10° N 06:13:09 83° E 06:17:05 10° S
FengYun 1-2 T 4.4 06:11:23 10° NNE 06:16:54 78° ESE 06:22:23 10° S
Cosmos 1602 3.9 06:13:55 10° SSW 06:17:35 47° W 06:21:19 10° N
Sich 1 2.9 06:13:56 10° SSW 06:18:11 71° W 06:22:28 10° N
Cosmos 1428 Rocket 4.4 06:12:16 10° SSW 06:18:23 74° W 06:24:31 10° N
Meteor PRIRODA 3.7 06:15:14 10° N 06:18:47 52° WNW 06:22:18 10° SSW
Cosmos 1500 Rocket 4.3 06:15:39 10° SW 06:19:39 32° WNW 06:23:41 10° N
DMSP B5D2-2 4.1 06:15:04 10° S 06:20:10 58° W 06:25:20 10° NNW
GENESIS II 4.2 06:17:26 13° NW 06:20:59 73° WSW 06:24:57 10° SSE
Meteor 1-18 Rocket 4.4 06:15:52 10° N 06:21:43 79° E 06:27:24 10° SSE
Cosmos 990 Rocket 4.0 06:16:51 10° SSW 06:22:06 90° SE 06:27:23 10° NNE
NOAA 11 4.4 06:17:35 10° N 06:22:51 49° WNW 06:28:07 10° SW
COSMOS 2487 3.4 06:20:59 15° NW 06:22:58 26° WSW 06:25:47 10° SSW
BREEZE M DEB (TANK) 2.8 06:21:00 15° NW 06:23:03 34° NNE 06:24:59 10° E
Meteor 1-20 Rocket 4.4 06:18:34 10° SSW 06:24:01 52° WNW 06:29:38 10° N
Meteor 2-21 4.4 06:17:52 10° S 06:24:04 79° W 06:30:15 10° N
Cosmos 1092 Rocket 4.1 06:18:14 10° SSW 06:24:24 58° WNW 06:30:39 10° N
Cosmos 1500 3.1 06:21:17 10° SSW 06:25:02 62° W 06:28:49 10° N
ATLAS 5 CENTAUR R/B 2.8 06:22:59 14° WNW 06:25:07 20° NW 06:28:25 10° NNE
H-2A R/B 2.1 06:26:18 10° S 06:30:34 67° WSW 06:34:59 10° NNW
Cosmos 1805 Rocket 4.0 06:28:13 10° SW 06:32:19 39° WNW 06:36:25 10° N
Cosmos 1697 Rocket 3.8 06:28:18 10° S 06:33:42 51° ESE 06:39:08 10° NE
Cosmos 1707 Rocket 3.6 06:30:00 10° N 06:34:27 82° W 06:38:55 10° S
Cosmos 44 3.9 06:34:17 10° SSW 06:39:38 72° ESE 06:44:51 10° NE
Meteor 1-19 Rocket 4.3 06:34:22 10° NNW 06:39:46 55° W 06:45:02 10° S
PSLV R/B 3.9 06:41:24 10° NNE 06:45:25 87° ESE 06:49:29 10° SSW
Cosmos 2219 3.4 06:39:50 10° NNW 06:45:32 80° ENE 06:51:14 10° SSE
Cosmos 1862 Rocket 3.7 06:43:42 10° N 06:48:03 81° E 06:52:24 10° S
Cosmos 724 4.3 06:42:50 10° NNW 06:48:44 89° ENE 06:54:31 10° SSE
FALCON 9 DEB 3.0 06:46:05 10° NW 06:48:54 58° NNE 06:51:42 10° ESE
NOSS 8 (E) 4.3 06:46:11 10° SW 06:49:50 87° NW 06:52:51 10° NE
